loading
|
Showing default

OPS 6582 (TRANSIT 5B-5), 965

Orbit data source: Space-Track

OPS 6582 (TRANSIT 5B-5), 965 is a payload satellite owned by USN BuWeps (US) in LEO that was launched on Sun, 13 Dec 1964 UTC via a THOR ABLESTAR launch vehicle from the Air Force Western Test Range (AFWTR). Payloads include a variety of satellites, spacecraft, and rockets equipped with specific instruments for various scientific and technological missions. These include communications satellites like Starlink; space stations such as the ISS; scientific satellites like the Hubble; Earth observation satellites from companies like Planet Labs, Umbra, and HawkEye 360; GPS; miniature CubeSats for education and research; and military/defense satellites.

Loading next visibility...
Loading greatness...
OPS 6582 (TRANSIT 5B-5) details
Identifier
965, 1964-083D
Orbit
LEO
Last TLE update9 hours ago
Origin
Flag of USUSN BuWeps (US)
ManufacturerNAFI
Mission statusUnknown
Mission OPS 6582)"
Bus & MotorTRANSIT 5, Unknown motor
Mass~54 kg wet, ~54 kg dry
Launch date (UTC)
1964-12-13 (60 years ago)
Launch vehicle
THOR ABLESTAR
Launch site
Air Force Western Test Range (AFWTR)
Object type
Payload
Rocket body
Debris
Radar Cross Section1.1 m², Medium (>0.1 m² and < 1m²)

Expand to show TLE details & history

TLE from 9 hours ago
0 OPS 6582 (TRANSIT 5B-5)
1 00965U 64083D   24258.90315472  .00000187  00000-0  24983-3 0  9998
2 00965  90.0526 198.7424 0041215 353.3237  72.8721 13.56907460956770
Epoch: 2024-09-14T21:40Z
Definitive object data (Epoch: 2024-09-14T21:40:32.567Z)
Latitude66.72623°
Longitude-120.86915°
Altitude1,049.682 km
Speed7.337 km/s
True Right ascension13h 14m 28s
True Declination66° 36' 22"
Sunlit
Object was in daylight at TLE epoch
Predictive object data (real-time)
Latitude47.51945°
Longitude-120.80268°
Altitude1,036.836 km
Speed7.346 km/s
Apparent Right ascension12h 10m 16s
Apparent Declination8° 13' 18"
Sunlit
Object is in daylight
Predictive observer data (real-time)
Local Sidereal Time23:04:12
Azimuth338.618° N
Elevation-39.496°
Doppler factor1
Orbital elements
Apogee1,074.582 km
Perigee1,013.402 km
Semi-major axis7,422.129 km
Eccentricity0.0041215
Inclination90.0526°
RAAN198.7424°
Arg. of periapsis353.3237°
True anomaly73.32412°
Mean anomaly72.8721°
Eccentric anomaly73.09804°
Mean motion3.3943 °/min
BSTAR0.00024983
Period106.06 mins
No data available

OPS 6582 (TRANSIT 5B-5) Visibility forecast

Observer location: 39.9160978°, -105.1181434

OPS 6582 (TRANSIT 5B-5) is not visible in the next 10 days
Span
Click to sort rows by Start time (UTC) header in descending order
Start Az.
Max El. time (UTC)
Max El. Az.
Max El.
End time (UTC)
End Az.